{"data":{"norad_id":66868,"epoch":"2026-05-24T19:26:23.155008Z","epoch_age_seconds":101677,"freshness":"FRESH","line1":"1 66868U 25281W   26144.80999022  .00019047  00000+0  69953-3 0  9993","line2":"2 66868  43.0019 273.8931 0001603 276.6550  83.4119 15.27595883 27814","mean_motion":15.27595883,"eccentricity":0.0001603,"inclination_deg":43.0019,"raan_deg":273.8931,"arg_perigee_deg":276.655,"mean_anomaly_deg":83.4119,"bstar":0.00069953,"rev_number":2781,"period_min":94.265768586128,"perigee_km":481.90169652837,"apogee_km":484.10137754334,"semimajor_km":6861.1385370359,"source":"CELESTRAK","updated_at":"2026-05-25T13:38:21.344705Z"}}